Weather History for KNQX - February, 2013

Change the Weather History Date:

Monday, February 4, 2013

  Actual Average Record
Temperature  
Mean Temperature 70 °F -  
Max Temperature 75 °F 74 °F 83 °F (1990)
Min Temperature 64 °F 65 °F 50 °F (1951)
Cooling Degree Days 4    
Growing Degree Days 20 (Base 50)    
Moisture  
Dew Point 52 °F    
Average Humidity 58    
Maximum Humidity 76    
Minimum Humidity 41    
Precipitation  
Precipitation 0.00 in - - ()
Sea Level Pressure  
Sea Level Pressure 30.07 in    
Wind  
Wind Speed 9 mph (NE)    
Max Wind Speed 15 mph    
Max Gust Speed 22 mph    
Visibility 10 miles    
Events      
Averages and records for this station are not official NWS values.
T = Trace of Precipitation, MM = Missing Value Source: NWS Daily Summary

Daily Weather History Graph

Daily Weather History Graph

Search for Another Location

Airport or City:

Trip Planner

Search our weather history database for the weather conditions in past years. The results will help you decide how hot, cold, wet, or windy it might be!

Date:

Astronomy

Feb. 04, 2013 Rise Set
Actual Time 7:07 AM EST 6:14 PM EST
Civil Twilight 6:43 AM EST 6:38 PM EST
Nautical Twilight 6:16 AM EST 7:05 PM EST
Astronomical Twilight 5:49 AM EST 7:32 PM EST
Moon 1:34 AM EST (2/4) 12:45 PM EST (2/4)
Length of Visible Light 11h 54m
Length of Day
11h 07m
Last Quarter, 37% of the Moon is Illuminated
Feb 4
Last Quarter
Feb 10
New
Feb 17
First Quarter
Feb 25
Full
Mar 4
Last Quarter

Hourly Weather History & Observations

Time (EST) Temp. Dew Point Humidity Pressure Visibility Wind Dir Wind Speed Gust Speed Precip Events Conditions
12:53 AM 64.9 °F 53.1 °F 65% 30.10 in 10.0 mi NNE 5.8 mph - N/A   Clear
1:53 AM 64.9 °F 52.0 °F 63% 30.09 in 10.0 mi NNE 8.1 mph - N/A   Clear
2:53 AM 64.9 °F 48.0 °F 54% 30.08 in 10.0 mi NE 9.2 mph - N/A   Clear
3:53 AM 64.0 °F 50.0 °F 60% 30.07 in 10.0 mi NNE 9.2 mph - N/A   Clear
5:53 AM 64.0 °F 52.0 °F 65% 30.09 in 10.0 mi NE 8.1 mph 16.1 mph N/A   Clear
6:53 AM 64.0 °F 50.0 °F 60% 30.11 in 10.0 mi NE 10.4 mph - N/A   Partly Cloudy
7:53 AM 64.9 °F 51.1 °F 61% 30.12 in 10.0 mi NE 10.4 mph - N/A   Partly Cloudy
8:53 AM 66.0 °F 52.0 °F 60% 30.13 in 10.0 mi NE 13.8 mph - N/A   Partly Cloudy
9:53 AM 68.0 °F 50.0 °F 52% 30.14 in 10.0 mi NE 10.4 mph - N/A   Partly Cloudy
10:53 AM 68.0 °F 48.0 °F 49% 30.12 in 10.0 mi NNE 13.8 mph 21.9 mph N/A   Clear
11:53 AM 69.1 °F 48.9 °F 49% 30.10 in 10.0 mi NE 12.7 mph 19.6 mph N/A   Clear
12:53 PM 71.1 °F 48.0 °F 44% 30.08 in 10.0 mi NNE 13.8 mph - N/A   Clear
1:53 PM 72.0 °F 50.0 °F 46% 30.05 in 10.0 mi NE 11.5 mph - N/A   Partly Cloudy
2:53 PM 75.0 °F 50.0 °F 41% 30.03 in 10.0 mi East 15.0 mph - N/A   Partly Cloudy
3:53 PM 72.0 °F 50.0 °F 46% 30.03 in 10.0 mi East 11.5 mph - N/A   Partly Cloudy
4:53 PM 71.1 °F 51.8 °F 50% 30.02 in 10.0 mi East 11.5 mph - N/A   Partly Cloudy
5:53 PM 70.0 °F 53.6 °F 56% 30.03 in 10.0 mi East 8.1 mph - N/A   Scattered Clouds
6:53 PM 69.1 °F 55.9 °F 63% 30.03 in 10.0 mi East 9.2 mph - N/A   Partly Cloudy
7:53 PM 69.1 °F 55.9 °F 63% 30.04 in 10.0 mi East 8.1 mph - N/A   Partly Cloudy
8:53 PM 68.0 °F 57.9 °F 70% 30.06 in 10.0 mi ENE 4.6 mph - N/A   Partly Cloudy
9:53 PM 66.9 °F 59.0 °F 76% 30.07 in 10.0 mi NE 4.6 mph - N/A   Partly Cloudy
10:53 PM 66.9 °F 59.0 °F 76% 30.07 in 10.0 mi ENE 4.6 mph - N/A   Scattered Clouds
11:53 PM 66.9 °F 57.9 °F 73% 30.06 in 10.0 mi East 8.1 mph - N/A   Partly Cloudy